When you browse on this site, cookies collect data to enhance your experience and personalize the content and advertising you see.
Visit our Privacy Policy to learn more. By continuing to use the site, you agree to this use of cookies and data.
  • In Hungary
  • List of Countries
  • For 7 days
  • Water Temperature
  • Satellite Maps
  • Weather Map
  • News
  • Weather Widgets
  • user-avatar
    Login

    Hourly Weather Ronda

    Today, 22 January, Tuesday

    Time Temperature Precipitation Wind Pressure Humidity
    00:00 +4°C° 0 mm 2 mps 706 mmHg 76%
    01:00 +4°C° 0 mm 2 mps 706 mmHg 77%
    02:00 +4°C° 0 mm 1 mps 705 mmHg 78%
    03:00 +4°C° 0 mm 1 mps 705 mmHg 79%
    04:00 +4°C° 0 mm 1 mps 705 mmHg 79%
    05:00 +4°C° 0 mm 1 mps 705 mmHg 79%
    06:00 +4°C° 0 mm 1 mps 705 mmHg 79%
    07:00 +3°C° 0 mm 2 mps 705 mmHg 76%
    08:00 +4°C° 0 mm 2 mps 706 mmHg 72%
    09:00 +5°C° 0 mm 2 mps 706 mmHg 69%
    10:00 +7°C° 0 mm 2 mps 706 mmHg 63%
    11:00 +8°C° 0 mm 3 mps 706 mmHg 57%
    12:00 +10°C° 0 mm 3 mps 706 mmHg 50%
    13:00 +10°C° 0 mm 3 mps 706 mmHg 52%
    14:00 +10°C° 0 mm 4 mps 705 mmHg 54%
    15:00 +10°C° 0 mm 4 mps 705 mmHg 56%
    16:00 +8°C° 0 mm 3 mps 704 mmHg 65%
    17:00 +7°C° 0 mm 3 mps 704 mmHg 73%
    18:00 +5°C° 0 mm 2 mps 704 mmHg 82%
    19:00 +4°C° 0.1 mm 3 mps 704 mmHg 85%
    20:00 +4°C° 0.1 mm 3 mps 704 mmHg 88%
    21:00 +4°C° 0.1 mm 3 mps 704 mmHg 91%
    22:00 +5°C° 0.2 mm 3 mps 704 mmHg 91%
    23:00 +5°C° 0.2 mm 3 mps 704 mmHg 92%

    Tomorrow, 23 January, Wednesday

    Time Temperature Precipitation Wind Pressure Humidity
    00:00 +5°C° 0.2 mm 4 mps 704 mmHg 93%
    01:00 +5°C° 0 mm 3 mps 703 mmHg 93%
    02:00 +5°C° 0 mm 3 mps 703 mmHg 94%
    03:00 +6°C° 0 mm 2 mps 703 mmHg 94%
    04:00 +5°C° 0 mm 2 mps 703 mmHg 94%
    05:00 +4°C° 0 mm 2 mps 703 mmHg 94%
    06:00 +4°C° 0 mm 2 mps 703 mmHg 94%
    07:00 +4°C° 0 mm 2 mps 704 mmHg 91%
    08:00 +4°C° 0 mm 2 mps 704 mmHg 89%
    09:00 +5°C° 0 mm 2 mps 704 mmHg 86%
    10:00 +6°C° 0 mm 2 mps 704 mmHg 80%
    11:00 +8°C° 0 mm 3 mps 705 mmHg 74%
    12:00 +9°C° 0 mm 3 mps 705 mmHg 69%
    13:00 +9°C° 0 mm 3 mps 704 mmHg 71%
    14:00 +9°C° 0 mm 3 mps 703 mmHg 74%
    15:00 +9°C° 0 mm 3 mps 703 mmHg 76%
    16:00 +8°C° 0.2 mm 3 mps 703 mmHg 80%
    17:00 +8°C° 0.2 mm 3 mps 703 mmHg 84%
    18:00 +8°C° 0.2 mm 2 mps 702 mmHg 87%
    19:00 +8°C° 0.1 mm 2 mps 703 mmHg 88%
    20:00 +7°C° 0.1 mm 3 mps 703 mmHg 88%
    21:00 +7°C° 0.1 mm 3 mps 703 mmHg 89%
    22:00 +7°C° 0 mm 2 mps 703 mmHg 90%
    23:00 +6°C° 0 mm 2 mps 702 mmHg 92%

    Day after tomorrow, 24 January, Thursday

    Time Temperature Precipitation Wind Pressure Humidity
    00:00 +5°C° 0 mm 2 mps 702 mmHg 93%
    01:00 +6°C° 0 mm 2 mps 702 mmHg 93%
    02:00 +6°C° 0 mm 2 mps 702 mmHg 92%
    03:00 +6°C° 0 mm 2 mps 702 mmHg 91%
    04:00 +6°C° 0 mm 2 mps 701 mmHg 91%
    05:00 +6°C° 0 mm 2 mps 701 mmHg 91%
    06:00 +7°C° 0 mm 2 mps 701 mmHg 91%
    07:00 +7°C° 0 mm 2 mps 701 mmHg 90%
    08:00 +7°C° 0 mm 2 mps 702 mmHg 89%
    09:00 +8°C° 0 mm 2 mps 702 mmHg 87%
    10:00 +9°C° 0 mm 2 mps 703 mmHg 80%
    11:00 +10°C° 0 mm 2 mps 703 mmHg 72%
    12:00 +13°C° 0 mm 2 mps 703 mmHg 64%
    13:00 +13°C° 0 mm 2 mps 703 mmHg 60%
    14:00 +14°C° 0 mm 2 mps 702 mmHg 55%
    15:00 +15°C° 0 mm 2 mps 702 mmHg 51%
    16:00 +13°C° 0 mm 2 mps 702 mmHg 59%
    17:00 +10°C° 0 mm 2 mps 702 mmHg 68%
    18:00 +8°C° 0 mm 2 mps 702 mmHg 76%
    19:00 +8°C° 0 mm 2 mps 702 mmHg 77%
    20:00 +7°C° 0 mm 2 mps 703 mmHg 77%
    21:00 +7°C° 0 mm 2 mps 703 mmHg 78%
    22:00 +7°C° 0 mm 2 mps 704 mmHg 77%
    23:00 +7°C° 0 mm 2 mps 704 mmHg 76%

    25 January, Friday

    Time Temperature Precipitation Wind Pressure Humidity
    00:00 +7°C° 0 mm 2 mps 704 mmHg 76%
    01:00 +7°C° 0 mm 2 mps 704 mmHg 73%
    02:00 +7°C° 0 mm 2 mps 704 mmHg 70%
    03:00 +6°C° 0 mm 2 mps 704 mmHg 68%
    04:00 +6°C° 0 mm 2 mps 704 mmHg 67%
    05:00 +6°C° 0 mm 2 mps 704 mmHg 67%
    06:00 +6°C° 0 mm 2 mps 704 mmHg 67%
    07:00 +7°C° 0 mm 2 mps 704 mmHg 66%
    08:00 +8°C° 0 mm 2 mps 705 mmHg 65%
    09:00 +9°C° 0 mm 2 mps 705 mmHg 64%
    10:00 +10°C° 0 mm 3 mps 706 mmHg 59%
    11:00 +12°C° 0 mm 3 mps 706 mmHg 54%
    12:00 +14°C° 0 mm 4 mps 706 mmHg 49%
    13:00 +14°C° 0 mm 4 mps 706 mmHg 50%
    14:00 +14°C° 0 mm 3 mps 706 mmHg 50%
    15:00 +14°C° 0 mm 3 mps 706 mmHg 51%
    16:00 +12°C° 0 mm 3 mps 705 mmHg 57%
    17:00 +10°C° 0 mm 3 mps 705 mmHg 64%
    18:00 +9°C° 0 mm 2 mps 705 mmHg 71%
    19:00 +8°C° 0 mm 2 mps 705 mmHg 71%
    20:00 +8°C° 0 mm 2 mps 705 mmHg 71%
    21:00 +7°C° 0 mm 2 mps 706 mmHg 72%
    22:00 +7°C° 0 mm 2 mps 706 mmHg 71%
    23:00 +7°C° 0 mm 2 mps 706 mmHg 70%

    26 January, Saturday

    Time Temperature Precipitation Wind Pressure Humidity
    00:00 +7°C° 0 mm 2 mps 706 mmHg 69%
    01:00 +7°C° 0 mm 2 mps 705 mmHg 70%
    02:00 +8°C° 0 mm 1 mps 705 mmHg 70%
    03:00 +7°C° 0 mm 1 mps 705 mmHg 70%
    04:00 +7°C° 0 mm 1 mps 705 mmHg 70%
    05:00 +7°C° 0 mm 1 mps 705 mmHg 69%
    06:00 +7°C° 0 mm 1 mps 704 mmHg 69%
    07:00 +8°C° 0 mm 1 mps 705 mmHg 66%
    08:00 +9°C° 0 mm 1 mps 705 mmHg 64%
    09:00 +10°C° 0 mm 1 mps 706 mmHg 61%
    10:00 +12°C° 0 mm 1 mps 706 mmHg 56%
    11:00 +14°C° 0 mm 2 mps 706 mmHg 51%
    12:00 +16°C° 0 mm 2 mps 706 mmHg 45%
    13:00 +16°C° 0 mm 2 mps 706 mmHg 45%
    14:00 +16°C° 0 mm 2 mps 705 mmHg 45%
    15:00 +16°C° 0 mm 3 mps 704 mmHg 45%
    16:00 +13°C° 0 mm 3 mps 704 mmHg 56%
    17:00 +12°C° 0 mm 2 mps 703 mmHg 66%
    18:00 +8°C° 0 mm 2 mps 703 mmHg 76%
    19:00 +8°C° 0 mm 2 mps 703 mmHg 81%
    20:00 +7°C° 0 mm 2 mps 703 mmHg 85%
    21:00 +6°C° 0 mm 2 mps 703 mmHg 89%
    22:00 +6°C° 0 mm 2 mps 703 mmHg 88%
    23:00 +6°C° 0 mm 2 mps 703 mmHg 88%

    27 January, Sunday

    Time Temperature Precipitation Wind Pressure Humidity
    00:00 +5°C° 0 mm 2 mps 703 mmHg 87%
    01:00 +5°C° 0 mm 2 mps 703 mmHg 87%
    02:00 +5°C° 0 mm 2 mps 703 mmHg 87%
    03:00 +4°C° 0 mm 2 mps 703 mmHg 87%
    04:00 +4°C° 0 mm 2 mps 703 mmHg 88%
    05:00 +3°C° 0 mm 2 mps 703 mmHg 89%
    06:00 +3°C° 0 mm 2 mps 703 mmHg 90%
    07:00 +4°C° 0 mm 2 mps 703 mmHg 88%
    08:00 +5°C° 0 mm 2 mps 704 mmHg 85%
    09:00 +5°C° 0 mm 2 mps 704 mmHg 83%
    10:00 +7°C° 0 mm 2 mps 705 mmHg 70%
    11:00 +9°C° 0 mm 3 mps 705 mmHg 57%
    12:00 +11°C° 0 mm 3 mps 706 mmHg 44%
    13:00 +11°C° 0 mm 3 mps 705 mmHg 44%
    14:00 +11°C° 0 mm 3 mps 705 mmHg 43%
    15:00 +11°C° 0 mm 3 mps 705 mmHg 43%
    16:00 +9°C° 0 mm 3 mps 704 mmHg 50%
    17:00 +7°C° 0 mm 2 mps 704 mmHg 57%
    18:00 +5°C° 0 mm 2 mps 704 mmHg 63%
    19:00 +5°C° 0 mm 2 mps 704 mmHg 67%
    20:00 +4°C° 0 mm 2 mps 704 mmHg 71%
    21:00 +4°C° 0 mm 2 mps 704 mmHg 74%
    22:00 +4°C° 0 mm 2 mps 704 mmHg 75%
    23:00 +3°C° 0 mm 2 mps 704 mmHg 76%
    Show more